indice_tiempo,serie_original,serie_desestacionalizada,serie_tendencia_ciclo
2016-01-01,117.05119421077302,134.200644870005,133.319192815976
2016-02-01,118.90029357259574,132.438274836565,132.280194858751
2016-03-01,136.80623010580314,132.83079428184,131.096582922491
2016-04-01,132.0696490854989,131.978662827975,129.835978264123
2016-05-01,132.12673005161108,127.738403479416,128.607056998417
2016-06-01,124.9916505365282,124.635146643711,127.59342789281
2016-07-01,126.76147447449927,125.826724079873,126.921434705706
2016-08-01,133.7329827733621,125.904400699434,126.641251794635
2016-09-01,135.51789212141713,128.353928156418,126.725685186303
2016-10-01,133.34114128281072,126.652759007231,127.094858814545
2016-11-01,134.73703178156455,129.725839594952,127.613257692487
2016-12-01,124.08230099201045,128.620845261679,128.188892532774
2017-01-01,115.72788011075902,130.383710698168,128.802300147215
2017-02-01,109.43840116663539,127.999574789067,129.491987286164
2017-03-01,135.7397555654156,130.314546232734,130.324181857477
2017-04-01,127.06229310335894,129.219902680222,131.323553836243
2017-05-01,137.32629188497592,131.533462183921,132.424210448961
2017-06-01,134.50955603897785,133.254806922503,133.507764072796
2017-07-01,135.52441430007988,134.180824045259,134.401962029402
2017-08-01,143.01220222320006,134.516037396346,134.98934248918
2017-09-01,140.47537228449835,135.943991470738,135.234056723073
2017-10-01,142.91248117324935,134.751277543048,135.218186478342
2017-11-01,141.4719289560601,137.518725987453,135.02320205973
2017-12-01,126.4041221015147,134.685704768697,134.753090465407
2018-01-01,120.49879049928444,133.435683462096,134.394349109017
2018-02-01,116.47032626071217,134.56069264914,133.867109720562
2018-03-01,137.87384466026174,132.453934598732,133.040753871292
2018-04-01,132.09178628946967,132.311102747769,131.774701955414
2018-05-01,135.86546669164358,129.385863652354,130.023137312035
2018-06-01,123.7285406594831,124.77649598209,127.855061300234
2018-07-01,126.78055488105136,123.037777571472,125.430324557129
2018-08-01,134.230175656126,124.904092819974,123.007888599034
2018-09-01,122.79085973979822,120.775022070349,120.831124895993
2018-10-01,130.95087535592188,122.447612477033,119.105659532987
2018-11-01,121.7206486951649,117.803060397063,118.036520465354
2018-12-01,107.65050820288417,117.225548275303,117.686954981448
2019-01-01,107.03848029567479,119.243519836455,117.950827476226
2019-02-01,106.67393616491125,124.145198465369,118.647259004564
2019-03-01,118.4180246331019,114.512537069109,119.473080609745
2019-04-01,120.37257298567555,119.150396500801,120.134185638471
2019-05-01,126.47961261497039,118.902948847367,120.446415744755
2019-06-01,114.85187278421954,118.002660938487,120.332426213276
2019-07-01,124.59825669196819,119.40636227682,119.851806309196
2019-08-01,125.6565333781152,116.897039794906,119.09080650635
2019-09-01,116.66765831856677,112.851137155028,118.070581008822
2019-10-01,128.57781819763605,120.511660133138,116.684481445663
2019-11-01,116.4504456095095,116.162682685831,114.74110561562
2019-12-01,109.19722086584407,117.619042360075,112.124838239795
2020-01-01,106.96676586826234,118.399471370296,108.986944871491
2020-02-01,105.96615315429496,119.411261011561,105.73837535282
2020-03-01,98.85080173419037,92.7395109598039,103.031730508213
2020-04-01,80.3695831755266,80.6526515352343,101.525374659632
2020-05-01,93.39727057897797,88.509802387796,101.596402865572
2020-06-01,107.68552518388505,106.042958632183,103.2683827031
2020-07-01,116.4396784123465,110.08330330096,106.199982314206
2020-08-01,116.62865541586976,110.177242162048,109.797834716168
2020-09-01,120.98271248501304,116.766103544371,113.469111834122
2020-10-01,124.93316804669958,117.855401031761,116.759690329298
2020-11-01,121.63746716478752,122.473329474293,119.478984988337
2020-12-01,115.3045653308336,122.973366054881,121.619020005566
2021-01-01,111.77271865397569,126.267373919882,123.308500702884
2021-02-01,107.75378473233181,124.399938530359,124.657007464662
2021-03-01,131.64720668610988,123.874908785033,125.686577195634
2021-04-01,125.52085964453052,124.766515150512,126.375996228855
2021-05-01,121.68405865362826,117.000782741402,126.74077000302
2021-06-01,128.59837307531353,127.436422392061,126.844531348204
2021-07-01,131.05026656085312,125.23630844432,126.843871951872
2021-08-01,132.9987929128236,124.703198853202,126.967682331746
2021-09-01,132.80407745438578,128.208136401596,127.403086781432
2021-10-01,130.03163702788962,126.088374236039,128.260489085453
2021-11-01,133.5955966896043,132.980582596727,129.501788264564
2021-12-01,127.32258878895958,134.444541347078,130.960026385656
2022-01-01,110.45223892022884,125.313752747592,132.43920873224
2022-02-01,116.87647628877906,133.380709277308,133.734673024884
2022-03-01,136.07583216221883,127.673991694067,134.71374511434
2022-04-01,131.11819647803645,133.051484864157,135.275770038127
2022-05-01,135.96811784058423,129.749138788559,135.35530844986
2022-06-01,137.75361724627663,135.254137705746,134.956429503832
2022-07-01,137.84169562716735,134.109744657143,134.155595794037
2022-08-01,142.7055095709832,133.669463532502,133.106539662924
2022-09-01,137.9107231198076,131.637448707862,132.039758226884
2022-10-01,133.93248712697456,130.931716312135,131.205260672814
2022-11-01,134.15856165774673,134.856414130678,130.756038942444
2022-12-01,123.36467308563505,131.117794187617,130.753516960506
2023-01-01,117.43350191456291,130.875568255905,131.059423613363
2023-02-01,114.96343269463138,131.441837518917,131.424709095168
2023-03-01,140.7421764511486,131.293055031611,131.61396962152
2023-04-01,133.40188138050036,137.957887382113,131.51606950716
2023-05-01,137.36013378842463,130.586511575762,131.124766812831
2023-06-01,134.33324735217658,129.620177461933,130.501575951125
2023-07-01,132.2922934300187,128.824369355854,129.681319938924
2023-08-01,138.28827936656654,129.077456879862,128.648637450386
2023-09-01,133.30106169450303,129.222547712343,127.324593257137
2023-10-01,133.0201567635191,128.698938549328,125.645851295588
2023-11-01,127.65610648476353,127.725533904095,123.658054077076
2023-12-01,107.5309216582554,117.4025826933,121.528072773739
2024-01-01,102.92340423785667,115.909102039207,119.495320682581
